SCP
0 -0 0 0 0 0 0 0 0 0 0 0 0 0 0 0 0 -0 -0 0 0 0 0 0 0 0 0 0 0 0 0 0 0 0 0 0 0 0 0 0 0 0 0 0 -0 -0 -0
0 -0 0 0 0 0 0 0 0 0 0 0 0 0 0 0 -0 -0 -0 0 0 0 0 0 0 0 0 0 0 0 0 0 0 0 0 0 0 0 0 0 0 0 0 -0 -0 -0 -0
0 0 0 0 0 0 0 0 0 0 0 0 0 0 0 0 0 0 0 0 0 0 0 0 0 0 0 0 0 0 0 0 0 0 0 0 0 0 0 0 0 0 0 -0 -0 -0 -0
0 0 0 0 0 0 0 0 0 0 0 0 0 0 0 0 0 -0 -0 -0 0 0 0 0 0 0 0 0 0 0 0 0 0 0 0 0 0 0 0 0 0 0 0 0 0 0 -0
0 0 0 0 0 0 0 0 0 0 0 0 0 0 0 0 0 0 -0 -0 -0 0 0 0 0 0 0 0 0 0 0 0 0 0 0 0 0 0 0 0 0 0 0 0 0 0 0
0 0 0 0 0 0 0 0 0 0 0 0 0 0 0 0 0 0 0 -0 0 0 0 0 0 0 0 0 0 0 0 0 0 0 0 0 0 0 0 0 0 0 0 0 0 0 0
-0 -0 -0 0 0 0 0 0 0 0 0 0 0 0 0 0 0 0 0 0 0 0 0 0 0 0 0 0 0 0 0 0 0 0 0 0 0 0 0 0 0 0 0 0 0 0 0
-0 -0 -0 -0 0 0 0 0 0 0 -0 -0 0 -0 -0 0 0 0 0 -0 -0 0 0 0 0 0 0 0 0 0 0 0 0 0 0 0 0 0 0 0 0 0 0 0 0 0 0
-0 -0 -0 -0 0 0 0 0 0 0 -0 -0 -0 -0 -0 0 -0 0 0 -0 0 0 0 0 0 0 0 0 0 0 0 0 0 0 0 0 0 0 0 0 0 0 0 0 0 0 0
-0 -0 -0 -0 0 0 0 0 0 0 -0 -0 -0 -0 -0 -0 0 0 -0 0 0 0 0 0 0 0 0 0 0 0 0 0 0 0 0 0 0 0 0 0 0 0 0 0 0 0 0
-0 -0 -0 0 0 0 0 0 0 0 0 -0 -0 -0 -0 -0 -0 0 0 0 0 -0 0 0 0 0 -0 0 0 0 0 0 0 0 0 0 0 0 0 0 0 0 0 0 0 0 0
0 -0 0 0 0 0 0 0 0 0 0 0 -0 -0 -0 0 -0 0 0 0 -0 0 0 0 0 0 0 0 0 0 0 0 0 0 0 0 0 0 0 0 0 0 0 0 0 0 0
0 0 0 0 0 0 0 0 0 0 0 0 0 0 0 0 0 0 -0 -0 0 0 0 0 0 0 0 0 0 0 0 0 0 0 0 0 0 0 0 0 0 0 0 0 0 0 0
0 0 0 0 0 0 0 0 0 0 -0 0 -0 0 0 0 -0 -0 -0 0 0 0 0 0 0 0 0 0 0 0 0 0 0 0 0 0 0 0 0 0 0 0 0 0 0 0 0
0 0 0 0 0 0 0 0 0 -0 -0 -0 -0 -0 0 -0 -0 0 -0 0 0 0 0 0 0 0 0 0 0 0 0 0 0 0 0 0 0 0 0 0 0 0 0 0 0 0 0
0 0 0 0 0 0 0 0 -0 0 0 -0 -0 -0 -0 0 0 0 -0 0 0 0 0 0 0 0 0 0 0 0 0 0 0 0 0 0 0 0 0 0 0 0 0 0 0 0 0
0 0 0 0 0 0 -0 0 -0 0 -0 -0 -0 -0 -0 0 0 -0 0 0 0 0 0 0 0 0 0 0 0 0 0 0 0 0 0 0 0 0 0 0 0 0 0 0 0 0 0
0 0 0 0 0 0 -0 -0 -0 0 -0 -0 -0 0 -0 0 -0 0 0 0 -0 0 0 0 0 0 0 0 0 0 0 0 0 0 0 0 0 0 0 0 0 0 0 0 0 0 0
0 0 0 0 0 0 -0 -0 -0 0 0 -0 -0 -0 0 0 0 0 0 0 -0 -0 0 0 0 0 0 0 0 0 0 0 0 0 0 0 0 0 0 0 0 0 0 0 0 0 0
0 0 0 0 0 0 -0 -0 -0 0 0 -0 -0 -0 -0 0 0 0 0 0 0 -0 -0 0 0 0 0 0 0 0 0 0 0 0 0 0 0 0 0 0 0 0 0 0 0 0 0
0 0 0 0 -0 -0 -0 -0 0 0 0 -0 -0 -0 -0 -0 0 0 0 0 0 -0 0 -0 0 0 0 0 0 0 0 0 0 0 0 0 0 0 0 0 0 0 0 0 0 0 0
0 0 0 0 -0 -0 -0 -0 0 -0 0 -0 -0 -0 -0 -0 0 -0 0 0 -0 0 0 -0 -0 0 0 0 0 0 0 0 0 0 0 0 0 0 0 0 0 0 0 0 0 0 0
0 0 0 -0 -0 -0 -0 -0 0 -0 -0 -0 -0 0 0 0 0 0 0 0 0 0 0 0 0 0 0 0 0 0 0 0 0 0 0 0 0 0 0 0 0 0 0 0 0 0 0
0 0 0 -0 -0 -0 -0 -0 0 -0 -0 -0 0 0 0 0 0 0 0 0 0 0 0 0 0 0 0 0 0 0 0 0 0 0 0 0 0 0 0 0 0 0 0 0 0 0 1
0 0 0 -0 -0 -0 -0 -0 0 -0 -0 -0 0 0 0 0 0 0 -0 0 0 0 0 0 0 0 0 0 0 0 0 0 0 0 0 0 0 0 0 0 0 0 0 0 0 0 0
0 0 0 -0 -0 -0 -0 -0 -0 -0 -0 0 0 0 0 0 0 0 0 0 0 0 0 0 0 0 0 0 0 0 0 0 0 0 0 0 0 0 0 0 0 0 0 0 0 0 0
0 0 0 -0 -0 -0 -0 -0 -0 -0 -0 0 0 0 0 0 0 0 -0 0 0 0 0 0 0 0 0 0 0 0 0 0 0 0 0 0 0 0 0 0 0 0 0 0 0 0 0
0 0 0 -0 -0 -0 -0 -0 -0 -0 -0 0 0 0 0 0 -0 -0 -0 0 0 0 0 0 0 0 0 0 0 0 0 0 0 0 0 0 0 0 0 0 0 0 0 0 0 0 0
0 0 0 -0 -0 -0 -0 0 -0 0 -0 0 0 0 0 0 -0 -0 -0 -0 -0 0 0 0 0 0 0 0 0 0 0 0 0 0 0 0 0 0 0 0 0 0 0 0 0 0 0
Wind_Speed_500mb
42 39 37 35 34 33 31 27 24 28 32 33 34 31 26 20 14 13 12 12 14 13 16 10 9 13 10 7 5 6 14 36 40 48 49 41 38 15 11 8 10 9 4 18 16 28 27
42 42 38 37 36 35 33 30 24 25 30 31 32 32 26 21 14 9 9 10 11 11 10 9 8 8 10 8 11 8 18 39 45 50 44 36 26 13 11 6 12 8 9 14 7 29 26
41 40 41 41 36 36 34 33 29 24 28 29 30 31 26 19 13 10 8 8 8 7 4 4 6 10 12 5 12 12 15 46 54 42 42 37 25 7 8 10 3 20 20 19 25 30 15
40 41 40 39 37 32 33 32 30 26 27 28 27 27 21 15 11 9 10 10 7 4 2 4 7 7 6 11 17 15 20 41 40 35 28 29 24 6 1 4 7 9 9 14 12 20 23
43 42 40 38 36 33 31 31 30 27 24 26 26 27 21 14 9 8 9 12 11 8 6 4 4 3 3 16 19 24 26 28 33 24 21 28 20 5 5 12 9 3 8 9 16 8 20
45 43 40 37 34 32 32 31 29 28 24 25 26 25 19 12 9 12 12 11 7 4 7 4 2 1 6 10 24 27 32 21 22 28 15 13 7 8 6 12 15 15 10 5 11 18 25
46 44 44 41 37 34 31 31 30 28 24 23 24 22 18 13 11 12 17 7 10 5 11 8 3 3 5 15 20 25 31 40 26 18 10 10 12 24 19 8 9 14 12 10 9 18 17
54 52 49 43 39 36 32 30 28 27 24 21 21 20 18 13 9 11 7 2 7 11 13 10 20 21 17 9 12 29 40 13 34 27 10 12 22 12 9 12 12 8 10 9 12 9 5
53 53 51 46 40 35 31 29 27 26 23 18 18 18 18 15 12 2 4 3 19 24 7 5 4 6 8 25 14 30 39 22 34 23 22 23 7 14 16 12 14 8 9 11 6 13 7
55 53 52 49 41 35 33 32 29 26 23 19 17 18 17 19 7 9 5 14 27 9 3 3 3 8 23 20 11 36 38 13 8 25 16 16 11 20 13 12 11 16 14 14 19 14 6
54 53 53 52 42 37 36 35 33 29 25 20 21 20 18 13 15 9 4 21 16 1 5 6 5 13 17 8 34 23 34 7 16 19 11 10 19 17 13 12 13 3 6 19 13 7 6
54 53 53 52 45 39 38 38 36 31 25 23 24 23 17 14 9 6 6 21 3 5 7 4 5 8 14 10 8 15 20 5 9 12 6 9 2 5 7 6 20 19 21 18 12 3 8
54 51 51 49 45 41 40 39 36 31 26 25 26 21 17 12 2 7 12 9 5 3 4 7 6 4 14 6 9 15 16 10 6 14 19 13 14 6 7 11 14 7 21 8 7 8 6
55 51 48 49 45 41 40 38 36 28 26 24 21 17 14 8 5 3 7 1 1 2 3 2 4 10 7 6 8 5 14 12 6 5 8 16 14 17 14 20 15 31 24 15 25 11 13
55 51 46 47 43 40 41 40 37 30 34 32 19 12 4 10 11 6 2 1 1 3 3 3 7 8 4 4 5 5 4 14 10 14 3 10 8 5 12 8 19 14 18 8 6 3 10
54 50 45 45 41 40 43 43 41 39 41 32 18 7 12 21 17 6 3 2 3 3 4 1 6 3 4 4 5 4 3 5 7 3 4 12 5 4 7 8 4 15 13 15 7 16 15
52 49 47 44 43 41 43 43 43 45 41 26 7 10 14 26 10 3 3 2 4 6 2 6 5 7 7 4 5 4 2 3 3 6 8 6 5 7 5 4 5 9 9 3 6 5 18
51 48 46 44 42 40 41 42 44 48 42 11 7 6 17 16 2 4 4 2 9 4 10 10 9 8 6 6 6 4 6 2 4 3 4 3 1 2 6 6 4 2 2 9 14 13 2
50 47 45 42 40 38 39 39 42 48 41 12 8 11 14 5 3 3 5 4 13 11 12 10 10 10 6 5 5 5 2 5 1 3 4 7 1 5 7 8 5 5 6 3 2 2 16
50 48 45 40 38 36 35 35 40 45 36 12 5 5 7 2 6 4 1 4 6 13 10 11 8 2 4 8 10 5 5 5 5 6 11 4 4 6 11 4 3 1 8 4 9 12 13
52 48 43 39 35 32 31 29 35 41 30 11 7 5 3 4 4 4 2 2 6 7 9 18 8 10 4 4 4 7 6 4 6 2 5 2 3 2 10 11 7 10 11 6 13 4 15
53 49 44 38 30 27 27 24 28 36 26 20 5 5 6 6 1 7 6 5 9 6 6 9 12 16 13 8 5 4 6 6 2 3 4 2 6 3 7 3 7 4 12 9 10 7 11
53 50 42 35 27 22 21 20 21 25 29 12 8 10 5 8 4 3 2 2 8 5 10 12 3 3 13 10 6 5 3 5 4 3 4 1 8 6 5 8 8 11 12 17 13 7 10
55 49 41 33 25 18 15 14 14 19 24 24 12 5 5 6 7 4 6 10 8 6 9 7 11 5 7 13 4 6 12 9 7 13 1 8 7 2 3 2 17 7 2 8 11 6 6
54 48 40 30 22 14 10 9 8 13 15 21 18 6 6 8 7 14 18 14 12 14 10 7 10 7 11 6 0 3 4 8 7 12 10 3 7 5 6 8 8 7 3 7 6 11 8
53 46 37 29 19 12 6 4 4 7 12 13 15 13 12 15 9 6 9 7 5 4 3 4 9 12 4 6 4 1 7 2 4 5 4 10 11 5 5 5 10 6 7 17 3 10 2
51 43 34 28 18 11 7 5 3 2 4 13 13 15 19 17 10 7 6 6 6 5 3 3 9 7 10 3 2 4 4 2 4 5 5 3 5 4 5 5 7 0 19 9 10 3 9
48 40 31 27 17 14 11 9 6 5 1 6 10 11 19 21 23 26 24 15 10 7 2 1 2 4 3 3 2 3 4 2 3 3 2 6 8 5 5 5 9 15 4 6 8 9 11
42 33 26 22 18 18 15 13 11 8 8 6 13 32 23 13 30 32 27 20 13 8 2 1 1 3 4 6 3 4 4 4 2 5 1 5 2 1 7 1 4 9 4 11 14 15 3
Wind_Direction_500mb
7 2 359 358 358 1 360 358 356 358 358 358 359 356 352 344 324 316 303 298 294 287 291 281 260 259 205 185 230 148 137 176 170 161 172 172 164 155 165 185 173 224 164 185 174 181 158
4 5 1 357 356 356 358 359 357 356 357 356 359 357 353 349 346 330 303 295 292 287 285 278 223 213 241 213 171 180 186 179 176 166 173 173 175 174 136 156 200 185 158 137 172 173 147
359 0 1 359 354 356 354 357 358 355 357 358 358 358 356 353 351 344 334 321 312 298 276 208 200 183 241 199 154 171 167 183 181 174 179 179 179 178 131 153 110 137 133 105 122 141 109
357 356 357 358 358 352 353 353 356 354 358 360 356 356 358 358 10 22 27 14 10 35 104 148 165 205 205 206 143 156 147 169 177 185 189 185 176 175 158 110 106 143 150 156 164 149 144
1 356 354 355 355 353 348 352 353 354 356 358 354 358 3 8 17 35 31 33 47 62 95 123 151 221 166 176 156 147 153 166 174 151 173 187 171 208 161 168 146 99 159 140 148 168 155
7 5 358 353 351 351 349 349 350 353 354 354 358 2 6 9 15 18 5 1 6 42 104 103 208 107 110 150 170 153 141 155 153 175 128 146 183 194 161 195 188 161 145 152 129 163 170
8 4 359 354 351 350 350 349 350 351 349 353 359 359 1 3 12 10 2 7 4 335 277 224 233 280 161 125 166 178 156 142 148 161 166 159 200 200 181 181 124 122 118 131 122 158 159
7 4 1 358 355 354 354 353 350 348 346 348 352 349 349 358 1 336 360 56 30 334 302 279 241 248 213 149 123 160 157 133 149 170 154 159 213 198 164 150 146 134 127 99 106 139 144
3 2 2 1 359 358 358 357 351 345 341 337 340 340 337 339 343 13 47 63 342 327 274 292 240 208 176 167 149 167 172 140 159 155 184 183 182 158 185 170 175 181 175 159 113 150 160
2 1 1 1 360 0 1 359 351 343 339 329 328 328 331 334 344 347 154 352 338 318 308 65 207 157 150 143 119 166 178 155 155 160 151 182 133 163 176 197 202 208 203 155 145 178 158
360 359 360 3 4 2 2 358 350 345 340 329 319 321 325 321 308 323 313 338 338 128 100 350 115 148 161 173 141 174 182 204 160 147 182 146 168 176 194 213 194 230 181 181 162 124 194
357 357 359 2 2 2 360 356 351 347 342 332 321 318 320 314 293 279 306 327 323 258 80 80 105 156 150 119 131 129 179 155 117 117 97 132 109 210 197 183 197 141 120 94 91 129 238
355 355 356 359 358 359 358 356 352 351 346 337 323 313 309 302 168 326 325 318 288 29 318 30 45 109 126 73 107 148 163 154 157 173 191 193 235 244 199 197 156 204 181 156 163 190 231
353 352 353 356 355 356 354 354 353 352 341 334 320 302 299 280 239 285 312 268 333 34 29 44 62 80 108 26 43 83 146 167 98 96 156 190 201 203 175 217 190 204 228 226 207 195 198
353 352 352 355 355 354 354 353 349 347 339 335 326 316 306 160 172 212 26 37 267 187 331 53 105 88 91 94 107 117 108 170 188 200 212 176 211 163 222 183 190 181 220 280 127 76 214
352 352 352 354 355 356 354 352 350 351 345 337 336 109 121 136 142 158 84 270 294 248 342 258 89 31 120 67 126 110 148 165 152 106 278 182 200 165 141 158 142 220 158 198 239 179 216
350 351 351 353 354 354 352 352 354 354 352 341 93 106 126 132 131 58 56 289 318 338 38 34 95 94 73 88 67 92 140 141 180 101 112 157 252 135 209 64 177 167 199 194 221 272 225
349 350 351 352 355 354 352 354 356 357 0 32 82 87 152 140 70 20 21 320 345 50 16 50 90 86 69 46 79 100 143 259 96 167 192 135 187 203 73 17 270 285 85 219 225 186 242
348 350 349 350 354 353 352 356 358 1 4 39 76 96 154 53 70 50 333 30 44 32 31 24 41 45 92 86 101 52 42 350 99 129 160 171 296 217 166 160 150 58 16 45 177 162 203
348 347 348 347 352 352 354 359 0 3 8 40 86 108 73 82 79 111 109 36 94 41 59 49 36 50 66 46 55 94 48 46 6 80 104 122 105 278 273 97 94 32 6 328 244 217 193
346 344 344 345 349 352 356 2 3 5 13 37 50 73 102 137 84 148 132 67 90 38 41 32 62 32 48 64 59 48 43 15 70 58 40 4 102 131 99 104 112 80 29 29 228 272 230
342 341 339 341 344 349 355 1 9 7 21 42 77 129 102 79 129 155 354 57 109 132 13 38 86 60 71 82 47 36 352 32 2 16 55 4 132 132 159 318 270 32 41 47 38 307 248
338 336 334 334 336 343 354 356 11 15 25 37 46 80 108 11 51 108 57 90 100 128 60 58 89 93 55 27 321 303 257 80 20 271 137 130 154 157 205 352 295 216 37 45 337 308 305
333 333 331 328 327 333 347 351 5 11 23 27 23 98 84 54 79 52 103 95 81 41 112 52 44 59 0 336 102 93 71 87 68 48 328 149 119 56 112 288 239 71 8 66 54 314 269
328 329 326 320 314 316 332 340 352 359 8 16 25 89 96 102 91 72 73 91 81 71 71 71 45 17 341 25 336 186 158 184 84 36 22 317 130 100 208 206 315 159 69 337 10 319 327
324 324 322 316 298 289 296 301 321 349 10 13 32 81 94 121 42 96 77 60 92 68 86 46 10 12 44 71 62 34 231 359 198 146 58 66 64 228 147 211 239 83 344 340 276 285 22
319 319 314 310 278 258 235 227 229 293 30 32 37 91 87 93 47 90 84 87 93 90 80 332 338 3 24 73 84 204 196 227 223 212 181 104 51 168 151 236 281 268 314 295 231 30 307
316 313 303 305 255 232 212 204 191 206 169 53 56 97 112 107 84 91 84 93 88 64 34 32 225 65 68 95 220 154 235 136 250 240 233 215 166 152 138 211 248 5 308 284 2 310 289
312 307 288 293 238 215 200 194 186 186 166 130 117 117 127 101 115 99 86 72 59 52 33 332 82 142 155 107 164 137 182 179 230 215 211 225 299 168 228 93 342 320 300 328 328 295 234
Wind_Speed_850mb
42 39 37 35 34 33 31 27 24 28 32 33 34 31 26 20 14 13 12 12 14 13 16 10 9 13 10 7 5 6 14 36 40 48 49 41 38 15 11 8 10 9 4 18 16 28 27
42 42 38 37 36 35 33 30 24 25 30 31 32 32 26 21 14 9 9 10 11 11 10 9 8 8 10 8 11 8 18 39 45 50 44 36 26 13 11 6 12 8 9 14 7 29 26
41 40 41 41 36 36 34 33 29 24 28 29 30 31 26 19 13 10 8 8 8 7 4 4 6 10 12 5 12 12 15 46 54 42 42 37 25 7 8 10 3 20 20 19 25 30 15
40 41 40 39 37 32 33 32 30 26 27 28 27 27 21 15 11 9 10 10 7 4 2 4 7 7 6 11 17 15 20 41 40 35 28 29 24 6 1 4 7 9 9 14 12 20 23
43 42 40 38 36 33 31 31 30 27 24 26 26 27 21 14 9 8 9 12 11 8 6 4 4 3 3 16 19 24 26 28 33 24 21 28 20 5 5 12 9 3 8 9 16 8 20
45 43 40 37 34 32 32 31 29 28 24 25 26 25 19 12 9 12 12 11 7 4 7 4 2 1 6 10 24 27 32 21 22 28 15 13 7 8 6 12 15 15 10 5 11 18 25
46 44 44 41 37 34 31 31 30 28 24 23 24 22 18 13 11 12 17 7 10 5 11 8 3 3 5 15 20 25 31 40 26 18 10 10 12 24 19 8 9 14 12 10 9 18 17
54 52 49 43 39 36 32 30 28 27 24 21 21 20 18 13 9 11 7 2 7 11 13 10 20 21 17 9 12 29 40 13 34 27 10 12 22 12 9 12 12 8 10 9 12 9 5
53 53 51 46 40 35 31 29 27 26 23 18 18 18 18 15 12 2 4 3 19 24 7 5 4 6 8 25 14 30 39 22 34 23 22 23 7 14 16 12 14 8 9 11 6 13 7
55 53 52 49 41 35 33 32 29 26 23 19 17 18 17 19 7 9 5 14 27 9 3 3 3 8 23 20 11 36 38 13 8 25 16 16 11 20 13 12 11 16 14 14 19 14 6
54 53 53 52 42 37 36 35 33 29 25 20 21 20 18 13 15 9 4 21 16 1 5 6 5 13 17 8 34 23 34 7 16 19 11 10 19 17 13 12 13 3 6 19 13 7 6
54 53 53 52 45 39 38 38 36 31 25 23 24 23 17 14 9 6 6 21 3 5 7 4 5 8 14 10 8 15 20 5 9 12 6 9 2 5 7 6 20 19 21 18 12 3 8
54 51 51 49 45 41 40 39 36 31 26 25 26 21 17 12 2 7 12 9 5 3 4 7 6 4 14 6 9 15 16 10 6 14 19 13 14 6 7 11 14 7 21 8 7 8 6
55 51 48 49 45 41 40 38 36 28 26 24 21 17 14 8 5 3 7 1 1 2 3 2 4 10 7 6 8 5 14 12 6 5 8 16 14 17 14 20 15 31 24 15 25 11 13
55 51 46 47 43 40 41 40 37 30 34 32 19 12 4 10 11 6 2 1 1 3 3 3 7 8 4 4 5 5 4 14 10 14 3 10 8 5 12 8 19 14 18 8 6 3 10
54 50 45 45 41 40 43 43 41 39 41 32 18 7 12 21 17 6 3 2 3 3 4 1 6 3 4 4 5 4 3 5 7 3 4 12 5 4 7 8 4 15 13 15 7 16 15
52 49 47 44 43 41 43 43 43 45 41 26 7 10 14 26 10 3 3 2 4 6 2 6 5 7 7 4 5 4 2 3 3 6 8 6 5 7 5 4 5 9 9 3 6 5 18
51 48 46 44 42 40 41 42 44 48 42 11 7 6 17 16 2 4 4 2 9 4 10 10 9 8 6 6 6 4 6 2 4 3 4 3 1 2 6 6 4 2 2 9 14 13 2
50 47 45 42 40 38 39 39 42 48 41 12 8 11 14 5 3 3 5 4 13 11 12 10 10 10 6 5 5 5 2 5 1 3 4 7 1 5 7 8 5 5 6 3 2 2 16
50 48 45 40 38 36 35 35 40 45 36 12 5 5 7 2 6 4 1 4 6 13 10 11 8 2 4 8 10 5 5 5 5 6 11 4 4 6 11 4 3 1 8 4 9 12 13
52 48 43 39 35 32 31 29 35 41 30 11 7 5 3 4 4 4 2 2 6 7 9 18 8 10 4 4 4 7 6 4 6 2 5 2 3 2 10 11 7 10 11 6 13 4 15
53 49 44 38 30 27 27 24 28 36 26 20 5 5 6 6 1 7 6 5 9 6 6 9 12 16 13 8 5 4 6 6 2 3 4 2 6 3 7 3 7 4 12 9 10 7 11
53 50 42 35 27 22 21 20 21 25 29 12 8 10 5 8 4 3 2 2 8 5 10 12 3 3 13 10 6 5 3 5 4 3 4 1 8 6 5 8 8 11 12 17 13 7 10
55 49 41 33 25 18 15 14 14 19 24 24 12 5 5 6 7 4 6 10 8 6 9 7 11 5 7 13 4 6 12 9 7 13 1 8 7 2 3 2 17 7 2 8 11 6 6
54 48 40 30 22 14 10 9 8 13 15 21 18 6 6 8 7 14 18 14 12 14 10 7 10 7 11 6 0 3 4 8 7 12 10 3 7 5 6 8 8 7 3 7 6 11 8
53 46 37 29 19 12 6 4 4 7 12 13 15 13 12 15 9 6 9 7 5 4 3 4 9 12 4 6 4 1 7 2 4 5 4 10 11 5 5 5 10 6 7 17 3 10 2
51 43 34 28 18 11 7 5 3 2 4 13 13 15 19 17 10 7 6 6 6 5 3 3 9 7 10 3 2 4 4 2 4 5 5 3 5 4 5 5 7 0 19 9 10 3 9
48 40 31 27 17 14 11 9 6 5 1 6 10 11 19 21 23 26 24 15 10 7 2 1 2 4 3 3 2 3 4 2 3 3 2 6 8 5 5 5 9 15 4 6 8 9 11
42 33 26 22 18 18 15 13 11 8 8 6 13 32 23 13 30 32 27 20 13 8 2 1 1 3 4 6 3 4 4 4 2 5 1 5 2 1 7 1 4 9 4 11 14 15 3
Wind_Direction_850mb
7 2 359 358 358 1 360 358 356 358 358 358 359 356 352 344 324 316 303 298 294 287 291 281 260 259 205 185 230 148 137 176 170 161 172 172 164 155 165 185 173 224 164 185 174 181 158
4 5 1 357 356 356 358 359 357 356 357 356 359 357 353 349 346 330 303 295 292 287 285 278 223 213 241 213 171 180 186 179 176 166 173 173 175 174 136 156 200 185 158 137 172 173 147
359 0 1 359 354 356 354 357 358 355 357 358 358 358 356 353 351 344 334 321 312 298 276 208 200 183 241 199 154 171 167 183 181 174 179 179 179 178 131 153 110 137 133 105 122 141 109
357 356 357 358 358 352 353 353 356 354 358 360 356 356 358 358 10 22 27 14 10 35 104 148 165 205 205 206 143 156 147 169 177 185 189 185 176 175 158 110 106 143 150 156 164 149 144
1 356 354 355 355 353 348 352 353 354 356 358 354 358 3 8 17 35 31 33 47 62 95 123 151 221 166 176 156 147 153 166 174 151 173 187 171 208 161 168 146 99 159 140 148 168 155
7 5 358 353 351 351 349 349 350 353 354 354 358 2 6 9 15 18 5 1 6 42 104 103 208 107 110 150 170 153 141 155 153 175 128 146 183 194 161 195 188 161 145 152 129 163 170
8 4 359 354 351 350 350 349 350 351 349 353 359 359 1 3 12 10 2 7 4 335 277 224 233 280 161 125 166 178 156 142 148 161 166 159 200 200 181 181 124 122 118 131 122 158 159
7 4 1 358 355 354 354 353 350 348 346 348 352 349 349 358 1 336 360 56 30 334 302 279 241 248 213 149 123 160 157 133 149 170 154 159 213 198 164 150 146 134 127 99 106 139 144
3 2 2 1 359 358 358 357 351 345 341 337 340 340 337 339 343 13 47 63 342 327 274 292 240 208 176 167 149 167 172 140 159 155 184 183 182 158 185 170 175 181 175 159 113 150 160
2 1 1 1 360 0 1 359 351 343 339 329 328 328 331 334 344 347 154 352 338 318 308 65 207 157 150 143 119 166 178 155 155 160 151 182 133 163 176 197 202 208 203 155 145 178 158
360 359 360 3 4 2 2 358 350 345 340 329 319 321 325 321 308 323 313 338 338 128 100 350 115 148 161 173 141 174 182 204 160 147 182 146 168 176 194 213 194 230 181 181 162 124 194
357 357 359 2 2 2 360 356 351 347 342 332 321 318 320 314 293 279 306 327 323 258 80 80 105 156 150 119 131 129 179 155 117 117 97 132 109 210 197 183 197 141 120 94 91 129 238
355 355 356 359 358 359 358 356 352 351 346 337 323 313 309 302 168 326 325 318 288 29 318 30 45 109 126 73 107 148 163 154 157 173 191 193 235 244 199 197 156 204 181 156 163 190 231
353 352 353 356 355 356 354 354 353 352 341 334 320 302 299 280 239 285 312 268 333 34 29 44 62 80 108 26 43 83 146 167 98 96 156 190 201 203 175 217 190 204 228 226 207 195 198
353 352 352 355 355 354 354 353 349 347 339 335 326 316 306 160 172 212 26 37 267 187 331 53 105 88 91 94 107 117 108 170 188 200 212 176 211 163 222 183 190 181 220 280 127 76 214
352 352 352 354 355 356 354 352 350 351 345 337 336 109 121 136 142 158 84 270 294 248 342 258 89 31 120 67 126 110 148 165 152 106 278 182 200 165 141 158 142 220 158 198 239 179 216
350 351 351 353 354 354 352 352 354 354 352 341 93 106 126 132 131 58 56 289 318 338 38 34 95 94 73 88 67 92 140 141 180 101 112 157 252 135 209 64 177 167 199 194 221 272 225
349 350 351 352 355 354 352 354 356 357 0 32 82 87 152 140 70 20 21 320 345 50 16 50 90 86 69 46 79 100 143 259 96 167 192 135 187 203 73 17 270 285 85 219 225 186 242
348 350 349 350 354 353 352 356 358 1 4 39 76 96 154 53 70 50 333 30 44 32 31 24 41 45 92 86 101 52 42 350 99 129 160 171 296 217 166 160 150 58 16 45 177 162 203
348 347 348 347 352 352 354 359 0 3 8 40 86 108 73 82 79 111 109 36 94 41 59 49 36 50 66 46 55 94 48 46 6 80 104 122 105 278 273 97 94 32 6 328 244 217 193
346 344 344 345 349 352 356 2 3 5 13 37 50 73 102 137 84 148 132 67 90 38 41 32 62 32 48 64 59 48 43 15 70 58 40 4 102 131 99 104 112 80 29 29 228 272 230
342 341 339 341 344 349 355 1 9 7 21 42 77 129 102 79 129 155 354 57 109 132 13 38 86 60 71 82 47 36 352 32 2 16 55 4 132 132 159 318 270 32 41 47 38 307 248
338 336 334 334 336 343 354 356 11 15 25 37 46 80 108 11 51 108 57 90 100 128 60 58 89 93 55 27 321 303 257 80 20 271 137 130 154 157 205 352 295 216 37 45 337 308 305
333 333 331 328 327 333 347 351 5 11 23 27 23 98 84 54 79 52 103 95 81 41 112 52 44 59 0 336 102 93 71 87 68 48 328 149 119 56 112 288 239 71 8 66 54 314 269
328 329 326 320 314 316 332 340 352 359 8 16 25 89 96 102 91 72 73 91 81 71 71 71 45 17 341 25 336 186 158 184 84 36 22 317 130 100 208 206 315 159 69 337 10 319 327
324 324 322 316 298 289 296 301 321 349 10 13 32 81 94 121 42 96 77 60 92 68 86 46 10 12 44 71 62 34 231 359 198 146 58 66 64 228 147 211 239 83 344 340 276 285 22
319 319 314 310 278 258 235 227 229 293 30 32 37 91 87 93 47 90 84 87 93 90 80 332 338 3 24 73 84 204 196 227 223 212 181 104 51 168 151 236 281 268 314 295 231 30 307
316 313 303 305 255 232 212 204 191 206 169 53 56 97 112 107 84 91 84 93 88 64 34 32 225 65 68 95 220 154 235 136 250 240 233 215 166 152 138 211 248 5 308 284 2 310 289
312 307 288 293 238 215 200 194 186 186 166 130 117 117 127 101 115 99 86 72 59 52 33 332 82 142 155 107 164 137 182 179 230 215 211 225 299 168 228 93 342 320 300 328 328 295 234